Torna al catalogo

YUXING-2 09

AttivoScienzaSSO
NORAD 66998·PAYLOAD·🇨🇳 China
Questo nome del satellite non è ancora stato confermato da fonti ufficiali.

Lanciato Dec 10, 2025 da Jiuquan Satellite Launch Center

Loading…

Prossimi Passaggi (prossime 24 ore)

TLE

AggiornatoSource: Space-Track

Epoca: Sep 14, 2026, 03:49 UTC

1 66998U 25292F   26257.15925441  .00004002  00000-0  26869-3 0  9991
2 66998  97.6283 332.3363 0015398  65.3801 294.9029 15.07288337 41854

Traccia YUXING-2 09 in tempo reale con AllMySat

Download on the App Store